Year,Month,Day,Hour,Minute,Value (Times are PST for temperature in C)
2021,07,03,00,00,12.50
2021,07,03,00,01,12.50
2021,07,03,00,02,12.50
2021,07,03,00,03,12.50
2021,07,03,00,04,12.50
2021,07,03,00,05,12.50
2021,07,03,00,06,12.50
2021,07,03,00,07,12.50
2021,07,03,00,08,12.50
2021,07,03,00,09,12.50
2021,07,03,00,10,12.40
2021,07,03,00,11,12.40
2021,07,03,00,12,12.40
2021,07,03,00,13,12.40
2021,07,03,00,14,12.40
2021,07,03,00,15,12.30
2021,07,03,00,16,12.30
2021,07,03,00,17,12.30
2021,07,03,00,18,12.30
2021,07,03,00,19,12.30
2021,07,03,00,20,12.20
2021,07,03,00,21,12.20
2021,07,03,00,22,12.20
2021,07,03,00,23,12.20
2021,07,03,00,24,12.20
2021,07,03,00,25,12.30
2021,07,03,00,26,12.30
2021,07,03,00,27,12.30
2021,07,03,00,28,12.30
2021,07,03,00,29,12.30
2021,07,03,00,30,12.30
2021,07,03,00,31,12.40
2021,07,03,00,32,12.40
2021,07,03,00,33,12.40
2021,07,03,00,34,12.40
2021,07,03,00,35,12.50
2021,07,03,00,36,12.50
2021,07,03,00,37,12.60
2021,07,03,00,38,12.60
2021,07,03,00,39,12.60
2021,07,03,00,40,12.50
2021,07,03,00,41,12.60
2021,07,03,00,42,12.50
2021,07,03,00,43,12.50
2021,07,03,00,44,12.50
2021,07,03,00,45,12.40
2021,07,03,00,46,12.40
2021,07,03,00,47,12.30
2021,07,03,00,48,12.30
2021,07,03,00,49,12.30
2021,07,03,00,50,12.30
2021,07,03,00,51,12.30
2021,07,03,00,52,12.30
2021,07,03,00,53,12.30
2021,07,03,00,54,12.20
2021,07,03,00,55,12.20
2021,07,03,00,56,12.20
2021,07,03,00,57,12.20
2021,07,03,00,58,12.20
2021,07,03,00,59,12.20
2021,07,03,01,00,12.20
2021,07,03,01,01,12.20
2021,07,03,01,02,12.20
2021,07,03,01,03,12.20
2021,07,03,01,04,12.20
2021,07,03,01,05,12.20
2021,07,03,01,06,12.20
2021,07,03,01,07,12.20
2021,07,03,01,08,12.20
2021,07,03,01,09,12.20
2021,07,03,01,10,12.20
2021,07,03,01,11,12.20
2021,07,03,01,12,12.20
2021,07,03,01,13,12.20
2021,07,03,01,14,12.20
2021,07,03,01,15,12.30
2021,07,03,01,16,12.30
2021,07,03,01,17,12.30
2021,07,03,01,18,12.20
2021,07,03,01,19,12.20
2021,07,03,01,20,12.20
2021,07,03,01,21,12.20
2021,07,03,01,22,12.20
2021,07,03,01,23,12.20
2021,07,03,01,24,12.20
2021,07,03,01,25,12.30
2021,07,03,01,26,12.30
2021,07,03,01,27,12.30
2021,07,03,01,28,12.30
2021,07,03,01,29,12.30
2021,07,03,01,30,12.30
2021,07,03,01,31,12.30
2021,07,03,01,32,12.30
2021,07,03,01,33,12.20
2021,07,03,01,34,12.20
2021,07,03,01,35,12.20
2021,07,03,01,36,12.20
2021,07,03,01,37,12.20
2021,07,03,01,38,12.20
2021,07,03,01,39,12.20
2021,07,03,01,40,12.20
2021,07,03,01,41,12.20
2021,07,03,01,42,12.20
2021,07,03,01,43,12.20
2021,07,03,01,44,12.20
2021,07,03,01,45,12.20
2021,07,03,01,46,12.20
2021,07,03,01,47,12.20
2021,07,03,01,48,12.20
2021,07,03,01,49,12.20
2021,07,03,01,50,12.20
2021,07,03,01,51,12.30
2021,07,03,01,52,12.30
2021,07,03,01,53,12.30
2021,07,03,01,54,12.30
2021,07,03,01,55,12.30
2021,07,03,01,56,12.30
2021,07,03,01,57,12.40
2021,07,03,01,58,12.40
2021,07,03,01,59,12.40
2021,07,03,02,00,12.40
2021,07,03,02,01,12.40
2021,07,03,02,02,12.40
2021,07,03,02,03,12.40
2021,07,03,02,04,12.30
2021,07,03,02,05,12.30
2021,07,03,02,06,12.30
2021,07,03,02,07,12.30
2021,07,03,02,08,12.30
2021,07,03,02,09,12.30
2021,07,03,02,10,12.30
2021,07,03,02,11,12.30
2021,07,03,02,12,12.30
2021,07,03,02,13,12.40
2021,07,03,02,14,12.40
2021,07,03,02,15,12.40
2021,07,03,02,16,12.40
2021,07,03,02,17,12.30
2021,07,03,02,18,12.30
2021,07,03,02,19,12.30
2021,07,03,02,20,12.20
2021,07,03,02,21,12.20
2021,07,03,02,22,12.20
2021,07,03,02,23,12.20
2021,07,03,02,24,12.20
2021,07,03,02,25,12.20
2021,07,03,02,26,12.10
2021,07,03,02,27,12.10
2021,07,03,02,28,12.20
2021,07,03,02,29,12.20
2021,07,03,02,30,12.20
2021,07,03,02,31,12.20
2021,07,03,02,32,12.20
2021,07,03,02,33,12.10
2021,07,03,02,34,12.10
2021,07,03,02,35,12.10
2021,07,03,02,36,12.10
2021,07,03,02,37,12.10
2021,07,03,02,38,12.10
2021,07,03,02,39,12.10
2021,07,03,02,40,12.10
2021,07,03,02,41,12.10
2021,07,03,02,42,12.10
2021,07,03,02,43,12.10
2021,07,03,02,44,12.10
2021,07,03,02,45,12.10
2021,07,03,02,46,12.00
2021,07,03,02,47,12.00
2021,07,03,02,48,11.90
2021,07,03,02,49,11.90
2021,07,03,02,50,11.90
2021,07,03,02,51,11.90
2021,07,03,02,52,11.80
2021,07,03,02,53,11.90
2021,07,03,02,54,11.90
2021,07,03,02,55,11.90
2021,07,03,02,56,11.90
2021,07,03,02,57,11.90
2021,07,03,02,58,12.00
2021,07,03,02,59,12.00
2021,07,03,03,00,12.00
2021,07,03,03,01,11.90
2021,07,03,03,02,11.90
2021,07,03,03,03,11.90
2021,07,03,03,04,11.90
2021,07,03,03,05,11.90
2021,07,03,03,06,11.90
2021,07,03,03,07,11.90
2021,07,03,03,08,11.90
2021,07,03,03,09,11.90
2021,07,03,03,10,11.90
2021,07,03,03,11,11.90
2021,07,03,03,12,11.90
2021,07,03,03,13,11.90
2021,07,03,03,14,11.90
2021,07,03,03,15,11.90
2021,07,03,03,16,11.90
2021,07,03,03,17,11.90
2021,07,03,03,18,11.80
2021,07,03,03,19,11.80
2021,07,03,03,20,11.80
2021,07,03,03,21,11.80
2021,07,03,03,22,11.70
2021,07,03,03,23,11.70
2021,07,03,03,24,11.80
2021,07,03,03,25,11.80
2021,07,03,03,26,11.80
2021,07,03,03,27,11.80
2021,07,03,03,28,11.80
2021,07,03,03,29,11.80
2021,07,03,03,30,11.80
2021,07,03,03,31,11.70
2021,07,03,03,32,11.60
2021,07,03,03,33,11.60
2021,07,03,03,34,11.60
2021,07,03,03,35,11.60
2021,07,03,03,36,11.60
2021,07,03,03,37,11.60
2021,07,03,03,38,11.60
2021,07,03,03,39,11.60
2021,07,03,03,40,11.60
2021,07,03,03,41,11.60
2021,07,03,03,42,11.60
2021,07,03,03,43,11.60
2021,07,03,03,44,11.60
2021,07,03,03,45,11.60
2021,07,03,03,46,11.60
2021,07,03,03,47,11.60
2021,07,03,03,48,11.60
2021,07,03,03,49,11.60
2021,07,03,03,50,11.60
2021,07,03,03,51,11.60
2021,07,03,03,52,11.60
2021,07,03,03,53,11.60
2021,07,03,03,54,11.60
2021,07,03,03,55,11.60
2021,07,03,03,56,11.60
2021,07,03,03,57,11.60
2021,07,03,03,58,11.60
2021,07,03,03,59,11.60
2021,07,03,04,00,11.60
2021,07,03,04,01,11.60
2021,07,03,04,02,11.60
2021,07,03,04,03,11.60
2021,07,03,04,04,11.60
2021,07,03,04,05,11.60
2021,07,03,04,06,11.60
2021,07,03,04,07,11.60
2021,07,03,04,08,11.60
2021,07,03,04,09,11.50
2021,07,03,04,10,11.50
2021,07,03,04,11,11.50
2021,07,03,04,12,11.50
2021,07,03,04,13,11.50
2021,07,03,04,14,11.50
2021,07,03,04,15,11.40
2021,07,03,04,16,11.40
2021,07,03,04,17,11.40
2021,07,03,04,18,11.40
2021,07,03,04,19,11.40
2021,07,03,04,20,11.40
2021,07,03,04,21,11.40
2021,07,03,04,22,11.40
2021,07,03,04,23,11.40
2021,07,03,04,24,11.40
2021,07,03,04,25,11.30
2021,07,03,04,26,11.30
2021,07,03,04,27,11.30
2021,07,03,04,28,11.30
2021,07,03,04,29,11.30
2021,07,03,04,30,11.30
2021,07,03,04,31,11.30
2021,07,03,04,32,11.30
2021,07,03,04,33,11.30
2021,07,03,04,34,11.30
2021,07,03,04,35,11.30
2021,07,03,04,36,11.30
2021,07,03,04,37,11.30
2021,07,03,04,38,11.30
2021,07,03,04,39,11.30
2021,07,03,04,40,11.40
2021,07,03,04,41,11.40
2021,07,03,04,42,11.30
2021,07,03,04,43,11.30
2021,07,03,04,44,11.30
2021,07,03,04,45,11.30
2021,07,03,04,46,11.30
2021,07,03,04,47,11.30
2021,07,03,04,48,11.30
2021,07,03,04,49,11.30
2021,07,03,04,50,11.20
2021,07,03,04,51,11.30
2021,07,03,04,52,11.30
2021,07,03,04,53,11.20
2021,07,03,04,54,11.20
2021,07,03,04,55,11.20
2021,07,03,04,56,11.20
2021,07,03,04,57,11.20
2021,07,03,04,58,11.20
2021,07,03,04,59,11.20
2021,07,03,05,00,11.20
2021,07,03,05,01,11.20
2021,07,03,05,02,11.20
2021,07,03,05,03,11.30
2021,07,03,05,04,11.30
2021,07,03,05,05,11.20
2021,07,03,05,06,11.20
2021,07,03,05,07,11.20
2021,07,03,05,08,11.20
2021,07,03,05,09,11.20
2021,07,03,05,10,11.20
2021,07,03,05,11,11.20
2021,07,03,05,12,11.20
2021,07,03,05,13,11.20
2021,07,03,05,14,11.20
2021,07,03,05,15,11.20
2021,07,03,05,16,11.20
2021,07,03,05,17,11.20
2021,07,03,05,18,11.20
2021,07,03,05,19,11.20
2021,07,03,05,20,11.20
2021,07,03,05,21,11.20
2021,07,03,05,22,11.20
2021,07,03,05,23,11.20
2021,07,03,05,24,11.30
2021,07,03,05,25,11.30
2021,07,03,05,26,11.30
2021,07,03,05,27,11.30
2021,07,03,05,28,11.30
2021,07,03,05,29,11.30
2021,07,03,05,30,11.30
2021,07,03,05,31,11.30
2021,07,03,05,32,11.30
2021,07,03,05,33,11.30
2021,07,03,05,34,11.30
2021,07,03,05,35,11.30
2021,07,03,05,36,11.30
2021,07,03,05,37,11.20
2021,07,03,05,38,11.20
2021,07,03,05,39,11.20
2021,07,03,05,40,11.20
2021,07,03,05,41,11.20
2021,07,03,05,42,11.20
2021,07,03,05,43,11.20
2021,07,03,05,44,11.20
2021,07,03,05,45,11.20
2021,07,03,05,46,11.20
2021,07,03,05,47,11.20
2021,07,03,05,48,11.20
2021,07,03,05,49,11.20
2021,07,03,05,50,11.20
2021,07,03,05,51,11.20
2021,07,03,05,52,11.20
2021,07,03,05,53,11.20
2021,07,03,05,54,11.20
2021,07,03,05,55,11.20
2021,07,03,05,56,11.20
2021,07,03,05,57,11.20
2021,07,03,05,58,11.20
2021,07,03,05,59,11.20
2021,07,03,06,00,11.20
2021,07,03,06,01,11.20
2021,07,03,06,02,11.20
2021,07,03,06,03,11.30
2021,07,03,06,04,11.30
2021,07,03,06,05,11.30
2021,07,03,06,06,11.30
2021,07,03,06,07,11.30
2021,07,03,06,08,11.30
2021,07,03,06,09,11.30
2021,07,03,06,10,11.30
2021,07,03,06,11,11.30
2021,07,03,06,12,11.30
2021,07,03,06,13,11.30
2021,07,03,06,14,11.30
2021,07,03,06,15,11.30
2021,07,03,06,16,11.30
2021,07,03,06,17,11.40
2021,07,03,06,18,11.30
2021,07,03,06,19,11.40
2021,07,03,06,20,11.40
2021,07,03,06,21,11.40
2021,07,03,06,22,11.40
2021,07,03,06,23,11.40
2021,07,03,06,24,11.40
2021,07,03,06,25,11.40
2021,07,03,06,26,11.40
2021,07,03,06,27,11.40
2021,07,03,06,28,11.50
2021,07,03,06,29,11.50
2021,07,03,06,30,11.50
2021,07,03,06,31,11.50
2021,07,03,06,32,11.50
2021,07,03,06,33,11.60
2021,07,03,06,34,11.60
2021,07,03,06,35,11.60
2021,07,03,06,36,11.60
2021,07,03,06,37,11.60
2021,07,03,06,38,11.60
2021,07,03,06,39,11.60
2021,07,03,06,40,11.60
2021,07,03,06,41,11.60
2021,07,03,06,42,11.60
2021,07,03,06,43,11.60
2021,07,03,06,44,11.60
2021,07,03,06,45,11.60
2021,07,03,06,46,11.60
2021,07,03,06,47,11.70
2021,07,03,06,48,11.70
2021,07,03,06,49,11.70
2021,07,03,06,50,11.70
2021,07,03,06,51,11.70
2021,07,03,06,52,11.60
2021,07,03,06,53,11.60
2021,07,03,06,54,11.70
2021,07,03,06,55,11.70
2021,07,03,06,56,11.70
2021,07,03,06,57,11.70
2021,07,03,06,58,11.70
2021,07,03,06,59,11.70
2021,07,03,07,00,11.60
2021,07,03,07,01,11.70
2021,07,03,07,02,11.70
2021,07,03,07,03,11.70
2021,07,03,07,04,11.70
2021,07,03,07,05,11.70
2021,07,03,07,06,11.70
2021,07,03,07,07,11.80
2021,07,03,07,08,11.90
2021,07,03,07,09,11.90
2021,07,03,07,10,11.90
2021,07,03,07,11,11.90
2021,07,03,07,12,11.90
2021,07,03,07,13,11.90
2021,07,03,07,14,11.90
2021,07,03,07,15,11.90
2021,07,03,07,16,11.90
2021,07,03,07,17,11.90
2021,07,03,07,18,12.00
2021,07,03,07,19,12.00
2021,07,03,07,20,12.10
2021,07,03,07,21,12.10
2021,07,03,07,22,12.20
2021,07,03,07,23,12.10
2021,07,03,07,24,12.10
2021,07,03,07,25,12.10
2021,07,03,07,26,12.10
2021,07,03,07,27,12.10
2021,07,03,07,28,12.10
2021,07,03,07,29,12.10
2021,07,03,07,30,12.10
2021,07,03,07,31,12.10
2021,07,03,07,32,12.10
2021,07,03,07,33,12.00
2021,07,03,07,34,12.00
2021,07,03,07,35,12.00
2021,07,03,07,36,12.00
2021,07,03,07,37,12.00
2021,07,03,07,38,12.00
2021,07,03,07,39,11.90
2021,07,03,07,40,11.90
2021,07,03,07,41,11.90
2021,07,03,07,42,11.80
2021,07,03,07,43,11.80
2021,07,03,07,44,11.90
2021,07,03,07,45,11.90
2021,07,03,07,46,11.90
2021,07,03,07,47,11.90
2021,07,03,07,48,11.90
2021,07,03,07,49,11.90
2021,07,03,07,50,12.00
2021,07,03,07,51,12.00
2021,07,03,07,52,12.00
2021,07,03,07,53,12.10
2021,07,03,07,54,12.20
2021,07,03,07,55,12.20
2021,07,03,07,56,12.30
2021,07,03,07,57,12.40
2021,07,03,07,58,12.40
2021,07,03,07,59,12.50
2021,07,03,08,00,12.50
2021,07,03,08,01,12.60
2021,07,03,08,02,12.70
2021,07,03,08,03,12.70
2021,07,03,08,04,12.70
2021,07,03,08,05,12.70
2021,07,03,08,06,12.70
2021,07,03,08,07,12.70
2021,07,03,08,08,12.70
2021,07,03,08,09,12.70
2021,07,03,08,10,12.70
2021,07,03,08,11,12.70
2021,07,03,08,12,12.60
2021,07,03,08,13,12.60
2021,07,03,08,14,12.60
2021,07,03,08,15,12.60
2021,07,03,08,16,12.60
2021,07,03,08,17,12.60
2021,07,03,08,18,12.60
2021,07,03,08,19,12.70
2021,07,03,08,20,12.70
2021,07,03,08,21,12.60
2021,07,03,08,22,12.60
2021,07,03,08,23,12.70
2021,07,03,08,24,12.70
2021,07,03,08,25,12.70
2021,07,03,08,26,12.70
2021,07,03,08,27,12.60
2021,07,03,08,28,12.60
2021,07,03,08,29,12.60
2021,07,03,08,30,12.60
2021,07,03,08,31,12.60
2021,07,03,08,32,12.60
2021,07,03,08,33,12.70
2021,07,03,08,34,12.70
2021,07,03,08,35,12.80
2021,07,03,08,36,12.80
2021,07,03,08,37,12.80
2021,07,03,08,38,12.90
2021,07,03,08,39,13.00
2021,07,03,08,40,13.00
2021,07,03,08,41,13.10
2021,07,03,08,42,13.20
2021,07,03,08,43,13.20
2021,07,03,08,44,13.20
2021,07,03,08,45,13.20
2021,07,03,08,46,13.30
2021,07,03,08,47,13.30
2021,07,03,08,48,13.30
2021,07,03,08,49,13.40
2021,07,03,08,50,13.40
2021,07,03,08,51,13.40
2021,07,03,08,52,13.50
2021,07,03,08,53,13.50
2021,07,03,08,54,13.50
2021,07,03,08,55,13.40
2021,07,03,08,56,13.40
2021,07,03,08,57,13.40
2021,07,03,08,58,13.40
2021,07,03,08,59,13.50
2021,07,03,09,00,13.50
2021,07,03,09,01,13.60
2021,07,03,09,02,13.70
2021,07,03,09,03,13.70
2021,07,03,09,04,13.80
2021,07,03,09,05,13.80
2021,07,03,09,06,13.90
2021,07,03,09,07,14.00
2021,07,03,09,08,14.00
2021,07,03,09,09,14.00
2021,07,03,09,10,14.00
2021,07,03,09,11,14.00
2021,07,03,09,12,13.90
2021,07,03,09,13,13.80
2021,07,03,09,14,13.70
2021,07,03,09,15,13.70
2021,07,03,09,16,13.70
2021,07,03,09,17,13.60
2021,07,03,09,18,13.50
2021,07,03,09,19,13.40
2021,07,03,09,20,13.40
2021,07,03,09,21,13.40
2021,07,03,09,22,13.40
2021,07,03,09,23,13.40
2021,07,03,09,24,13.40
2021,07,03,09,25,13.40
2021,07,03,09,26,13.50
2021,07,03,09,27,13.50
2021,07,03,09,28,13.60
2021,07,03,09,29,13.70
2021,07,03,09,30,13.70
2021,07,03,09,31,13.70
2021,07,03,09,32,13.70
2021,07,03,09,33,13.70
2021,07,03,09,34,13.70
2021,07,03,09,35,13.70
2021,07,03,09,36,13.70
2021,07,03,09,37,13.70
2021,07,03,09,38,13.70
2021,07,03,09,39,13.70
2021,07,03,09,40,13.80
2021,07,03,09,41,13.90
2021,07,03,09,42,14.00
2021,07,03,09,43,14.10
2021,07,03,09,44,14.10
2021,07,03,09,45,14.20
2021,07,03,09,46,14.30
2021,07,03,09,47,14.30
2021,07,03,09,48,14.40
2021,07,03,09,49,14.40
2021,07,03,09,50,14.60
2021,07,03,09,51,14.60
2021,07,03,09,52,14.60
2021,07,03,09,53,14.70
2021,07,03,09,54,14.70
2021,07,03,09,55,14.70
2021,07,03,09,56,14.80
2021,07,03,09,57,14.70
2021,07,03,09,58,14.70
2021,07,03,09,59,14.70
2021,07,03,10,00,14.70
2021,07,03,10,01,14.70
2021,07,03,10,02,14.80
2021,07,03,10,03,14.90
2021,07,03,10,04,14.90
2021,07,03,10,05,15.00
2021,07,03,10,06,15.00
2021,07,03,10,07,15.00
2021,07,03,10,08,15.10
2021,07,03,10,09,15.10
2021,07,03,10,10,15.10
2021,07,03,10,11,15.10
2021,07,03,10,12,15.20
2021,07,03,10,13,15.20
2021,07,03,10,14,15.20
2021,07,03,10,15,15.30
2021,07,03,10,16,15.40
2021,07,03,10,17,15.30
2021,07,03,10,18,15.30
2021,07,03,10,19,15.20
2021,07,03,10,20,15.20
2021,07,03,10,21,15.30
2021,07,03,10,22,15.50
2021,07,03,10,23,15.50
2021,07,03,10,24,15.50
2021,07,03,10,25,15.50
2021,07,03,10,26,15.50
2021,07,03,10,27,15.40
2021,07,03,10,28,15.50
2021,07,03,10,29,15.60
2021,07,03,10,30,15.60
2021,07,03,10,31,15.50
2021,07,03,10,32,15.40
2021,07,03,10,33,15.40
2021,07,03,10,34,15.30
2021,07,03,10,35,15.20
2021,07,03,10,36,15.10
2021,07,03,10,37,15.00
2021,07,03,10,38,15.00
2021,07,03,10,39,14.90
2021,07,03,10,40,14.90
2021,07,03,10,41,14.90
2021,07,03,10,42,14.80
2021,07,03,10,43,14.90
2021,07,03,10,44,15.00
2021,07,03,10,45,15.10
2021,07,03,10,46,15.10
2021,07,03,10,47,15.20
2021,07,03,10,48,15.20
2021,07,03,10,49,15.20
2021,07,03,10,50,15.20
2021,07,03,10,51,15.30
2021,07,03,10,52,15.30
2021,07,03,10,53,15.30
2021,07,03,10,54,15.30
2021,07,03,10,55,15.30
2021,07,03,10,56,15.40
2021,07,03,10,57,15.40
2021,07,03,10,58,15.50
2021,07,03,10,59,15.50
2021,07,03,11,00,15.60
2021,07,03,11,01,15.60
2021,07,03,11,02,15.70
2021,07,03,11,03,15.90
2021,07,03,11,04,15.90
2021,07,03,11,05,16.00
2021,07,03,11,06,16.10
2021,07,03,11,07,16.20
2021,07,03,11,08,16.20
2021,07,03,11,09,16.20
2021,07,03,11,10,16.30
2021,07,03,11,11,16.50
2021,07,03,11,12,16.50
2021,07,03,11,13,16.50
2021,07,03,11,14,16.40
2021,07,03,11,15,16.30
2021,07,03,11,16,16.40
2021,07,03,11,17,16.40
2021,07,03,11,18,16.40
2021,07,03,11,19,16.40
2021,07,03,11,20,16.40
2021,07,03,11,21,16.40
2021,07,03,11,22,16.30
2021,07,03,11,23,16.30
2021,07,03,11,24,16.30
2021,07,03,11,25,16.30
2021,07,03,11,26,16.30
2021,07,03,11,27,16.40
2021,07,03,11,28,16.50
2021,07,03,11,29,16.50
2021,07,03,11,30,16.60
2021,07,03,11,31,16.60
2021,07,03,11,32,16.60
2021,07,03,11,33,16.60
2021,07,03,11,34,16.60
2021,07,03,11,35,16.60
2021,07,03,11,36,16.50
2021,07,03,11,37,16.50
2021,07,03,11,38,16.60
2021,07,03,11,39,16.50
2021,07,03,11,40,16.20
2021,07,03,11,41,16.00
2021,07,03,11,42,15.90
2021,07,03,11,43,15.80
2021,07,03,11,44,15.70
2021,07,03,11,45,15.50
2021,07,03,11,46,15.40
2021,07,03,11,47,15.40
2021,07,03,11,48,15.40
2021,07,03,11,49,15.40
2021,07,03,11,50,15.30
2021,07,03,11,51,15.30
2021,07,03,11,52,15.30
2021,07,03,11,53,15.20
2021,07,03,11,54,15.10
2021,07,03,11,55,14.90
2021,07,03,11,56,14.80
2021,07,03,11,57,14.70
2021,07,03,11,58,14.60
2021,07,03,11,59,14.60
2021,07,03,12,00,14.60
2021,07,03,12,01,14.60
2021,07,03,12,02,14.50
2021,07,03,12,03,14.40
2021,07,03,12,04,14.20
2021,07,03,12,05,14.10
2021,07,03,12,06,14.10
2021,07,03,12,07,14.10
2021,07,03,12,08,14.00
2021,07,03,12,09,13.90
2021,07,03,12,10,14.00
2021,07,03,12,11,14.00
2021,07,03,12,12,14.10
2021,07,03,12,13,14.10
2021,07,03,12,14,14.00
2021,07,03,12,15,13.90
2021,07,03,12,16,13.70
2021,07,03,12,17,13.60
2021,07,03,12,18,13.70
2021,07,03,12,19,13.70
2021,07,03,12,20,13.80
2021,07,03,12,21,13.90
2021,07,03,12,22,13.90
2021,07,03,12,23,13.80
2021,07,03,12,24,13.90
2021,07,03,12,25,13.80
2021,07,03,12,26,13.70
2021,07,03,12,27,13.60
2021,07,03,12,28,13.70
2021,07,03,12,29,13.70
2021,07,03,12,30,13.80
2021,07,03,12,31,13.70
2021,07,03,12,32,13.70
2021,07,03,12,33,13.70
2021,07,03,12,34,13.70
2021,07,03,12,35,13.70
2021,07,03,12,36,13.60
2021,07,03,12,37,13.60
2021,07,03,12,38,13.60
2021,07,03,12,39,13.60
2021,07,03,12,40,13.60
2021,07,03,12,41,13.70
2021,07,03,12,42,13.70
2021,07,03,12,43,13.70
2021,07,03,12,44,13.70
2021,07,03,12,45,13.70
2021,07,03,12,46,13.70
2021,07,03,12,47,13.70
2021,07,03,12,48,13.60
2021,07,03,12,49,13.50
2021,07,03,12,50,13.40
2021,07,03,12,51,13.40
2021,07,03,12,52,13.30
2021,07,03,12,53,13.30
2021,07,03,12,54,13.30
2021,07,03,12,55,13.40
2021,07,03,12,56,13.50
2021,07,03,12,57,13.40
2021,07,03,12,58,13.50
2021,07,03,12,59,13.60
2021,07,03,13,00,13.80
2021,07,03,13,01,13.90
2021,07,03,13,02,14.00
2021,07,03,13,03,14.10
2021,07,03,13,04,14.20
2021,07,03,13,05,14.30
2021,07,03,13,06,14.40
2021,07,03,13,07,14.60
2021,07,03,13,08,14.60
2021,07,03,13,09,14.60
2021,07,03,13,10,14.70
2021,07,03,13,11,14.80
2021,07,03,13,12,14.80
2021,07,03,13,13,14.90
2021,07,03,13,14,15.00
2021,07,03,13,15,15.10
2021,07,03,13,16,15.20
2021,07,03,13,17,15.20
2021,07,03,13,18,15.30
2021,07,03,13,19,15.30
2021,07,03,13,20,15.40
2021,07,03,13,21,15.50
2021,07,03,13,22,15.50
2021,07,03,13,23,15.40
2021,07,03,13,24,15.40
2021,07,03,13,25,15.40
2021,07,03,13,26,15.40
2021,07,03,13,27,15.40
2021,07,03,13,28,15.40
2021,07,03,13,29,15.30
2021,07,03,13,30,15.20
2021,07,03,13,31,15.10
2021,07,03,13,32,15.10
2021,07,03,13,33,15.10
2021,07,03,13,34,15.10
2021,07,03,13,35,15.10
2021,07,03,13,36,15.10
2021,07,03,13,37,15.10
2021,07,03,13,38,15.00
2021,07,03,13,39,14.90
2021,07,03,13,40,14.90
2021,07,03,13,41,14.80
2021,07,03,13,42,14.80
2021,07,03,13,43,14.80
2021,07,03,13,44,14.70
2021,07,03,13,45,14.70
2021,07,03,13,46,14.80
2021,07,03,13,47,15.00
2021,07,03,13,48,15.10
2021,07,03,13,49,15.30
2021,07,03,13,50,15.30
2021,07,03,13,51,15.30
2021,07,03,13,52,15.20
2021,07,03,13,53,15.10
2021,07,03,13,54,15.00
2021,07,03,13,55,14.90
2021,07,03,13,56,14.80
2021,07,03,13,57,14.80
2021,07,03,13,58,14.80
2021,07,03,13,59,14.90
2021,07,03,14,00,15.10
2021,07,03,14,01,15.30
2021,07,03,14,02,15.40
2021,07,03,14,03,15.50
2021,07,03,14,04,15.60
2021,07,03,14,05,15.70
2021,07,03,14,06,15.80
2021,07,03,14,07,15.90
2021,07,03,14,08,16.00
2021,07,03,14,09,16.10
2021,07,03,14,10,16.20
2021,07,03,14,11,16.30
2021,07,03,14,12,16.40
2021,07,03,14,13,16.50
2021,07,03,14,14,16.50
2021,07,03,14,15,16.60
2021,07,03,14,16,16.60
2021,07,03,14,17,16.70
2021,07,03,14,18,16.80
2021,07,03,14,19,16.80
2021,07,03,14,20,16.90
2021,07,03,14,21,17.00
2021,07,03,14,22,17.10
2021,07,03,14,23,17.20
2021,07,03,14,24,17.30
2021,07,03,14,25,17.30
2021,07,03,14,26,17.20
2021,07,03,14,27,17.20
2021,07,03,14,28,17.10
2021,07,03,14,29,17.10
2021,07,03,14,30,17.10
2021,07,03,14,31,17.10
2021,07,03,14,32,17.10
2021,07,03,14,33,17.10
2021,07,03,14,34,17.20
2021,07,03,14,35,17.20
2021,07,03,14,36,17.20
2021,07,03,14,37,17.20
2021,07,03,14,38,17.30
2021,07,03,14,39,17.30
2021,07,03,14,40,17.30
2021,07,03,14,41,17.30
2021,07,03,14,42,17.40
2021,07,03,14,43,17.50
2021,07,03,14,44,17.60
2021,07,03,14,45,17.60
2021,07,03,14,46,17.60
2021,07,03,14,47,17.60
2021,07,03,14,48,17.60
2021,07,03,14,49,17.60
2021,07,03,14,50,17.70
2021,07,03,14,51,17.90
2021,07,03,14,52,18.00
2021,07,03,14,53,18.00
2021,07,03,14,54,18.00
2021,07,03,14,55,17.90
2021,07,03,14,56,17.80
2021,07,03,14,57,17.70
2021,07,03,14,58,17.60
2021,07,03,14,59,17.50
2021,07,03,15,00,17.40
2021,07,03,15,01,17.40
2021,07,03,15,02,17.50
2021,07,03,15,03,17.50
2021,07,03,15,04,17.30
2021,07,03,15,05,17.30
2021,07,03,15,06,17.20
2021,07,03,15,07,17.20
2021,07,03,15,08,17.10
2021,07,03,15,09,17.10
2021,07,03,15,10,17.10
2021,07,03,15,11,17.00
2021,07,03,15,12,16.90
2021,07,03,15,13,16.90
2021,07,03,15,14,16.80
2021,07,03,15,15,16.80
2021,07,03,15,16,16.90
2021,07,03,15,17,16.80
2021,07,03,15,18,16.90
2021,07,03,15,19,17.00
2021,07,03,15,20,17.10
2021,07,03,15,21,17.40
2021,07,03,15,22,17.50
2021,07,03,15,23,17.50
2021,07,03,15,24,17.40
2021,07,03,15,25,17.50
2021,07,03,15,26,17.50
2021,07,03,15,27,17.70
2021,07,03,15,28,17.90
2021,07,03,15,29,18.00
2021,07,03,15,30,18.20
2021,07,03,15,31,18.30
2021,07,03,15,32,18.50
2021,07,03,15,33,18.60
2021,07,03,15,34,18.60
2021,07,03,15,35,18.60
2021,07,03,15,36,18.50
2021,07,03,15,37,18.40
2021,07,03,15,38,18.30
2021,07,03,15,39,18.10
2021,07,03,15,40,18.00
2021,07,03,15,41,17.80
2021,07,03,15,42,17.70
2021,07,03,15,43,17.70
2021,07,03,15,44,17.70
2021,07,03,15,45,17.60
2021,07,03,15,46,17.60
2021,07,03,15,47,17.60
2021,07,03,15,48,17.60
2021,07,03,15,49,17.70
2021,07,03,15,50,17.70
2021,07,03,15,51,17.70
2021,07,03,15,52,17.80
2021,07,03,15,53,17.90
2021,07,03,15,54,18.00
2021,07,03,15,55,17.90
2021,07,03,15,56,17.90
2021,07,03,15,57,17.80
2021,07,03,15,58,17.70
2021,07,03,15,59,17.70
2021,07,03,16,00,17.70
2021,07,03,16,01,17.70
2021,07,03,16,02,17.70
2021,07,03,16,03,17.60
2021,07,03,16,04,17.50
2021,07,03,16,05,17.50
2021,07,03,16,06,17.50
2021,07,03,16,07,17.40
2021,07,03,16,08,17.30
2021,07,03,16,09,17.30
2021,07,03,16,10,17.40
2021,07,03,16,11,17.40
2021,07,03,16,12,17.40
2021,07,03,16,13,17.40
2021,07,03,16,14,17.40
2021,07,03,16,15,17.50
2021,07,03,16,16,17.40
2021,07,03,16,17,17.40
2021,07,03,16,18,17.40
2021,07,03,16,19,17.30
2021,07,03,16,20,17.30
2021,07,03,16,21,17.10
2021,07,03,16,22,17.10
2021,07,03,16,23,17.20
2021,07,03,16,24,17.30
2021,07,03,16,25,17.30
2021,07,03,16,26,17.20
2021,07,03,16,27,17.10
2021,07,03,16,28,17.10
2021,07,03,16,29,17.00
2021,07,03,16,30,17.10
2021,07,03,16,31,17.10
2021,07,03,16,32,16.90
2021,07,03,16,33,16.80
2021,07,03,16,34,16.70
2021,07,03,16,35,16.70
2021,07,03,16,36,16.70
2021,07,03,16,37,16.70
2021,07,03,16,38,16.70
2021,07,03,16,39,16.70
2021,07,03,16,40,16.50
2021,07,03,16,41,16.50
2021,07,03,16,42,16.40
2021,07,03,16,43,16.40
2021,07,03,16,44,16.40
2021,07,03,16,45,16.40
2021,07,03,16,46,16.30
2021,07,03,16,47,16.20
2021,07,03,16,48,16.10
2021,07,03,16,49,16.00
2021,07,03,16,50,15.80
2021,07,03,16,51,15.60
2021,07,03,16,52,15.50
2021,07,03,16,53,15.50
2021,07,03,16,54,15.40
2021,07,03,16,55,15.30
2021,07,03,16,56,15.30
2021,07,03,16,57,15.40
2021,07,03,16,58,15.40
2021,07,03,16,59,15.40
2021,07,03,17,00,15.40
2021,07,03,17,01,15.30
2021,07,03,17,02,15.20
2021,07,03,17,03,15.10
2021,07,03,17,04,15.20
2021,07,03,17,05,15.20
2021,07,03,17,06,15.10
2021,07,03,17,07,15.10
2021,07,03,17,08,15.20
2021,07,03,17,09,15.20
2021,07,03,17,10,15.30
2021,07,03,17,11,15.30
2021,07,03,17,12,15.30
2021,07,03,17,13,15.40
2021,07,03,17,14,15.50
2021,07,03,17,15,15.60
2021,07,03,17,16,15.80
2021,07,03,17,17,16.00
2021,07,03,17,18,16.10
2021,07,03,17,19,16.20